Nashville, TN (37227)

6:59 PM CDT on March 26, 2015 (GMT -0500)
Woodland Pointe | | Change Station
CLOSE
Current Station
Personal Weather Station
Location: Nashville, TN
Elevation: 580 ft
Nearby Weather Stations
Active Advisory: Freeze Watch

Elev 580 ft 36.12 °N, 86.62 °W | Updated 4 minutes ago

Overcast
Overcast
43.0 °F
Feels Like 43 °F
N
3.0
Wind Variable Wind from ENE
Gusts 10.0 mph

Today
High -- | Low -- °F
--% Chance of Precip.
Yesterday
High -- | Low -- °F
Precip. -- in
6:41 AM 7:03 PM
Waxing Crescent, 47% visible
Pressure 29.97 in
Visibility 10.0 miles
Clouds Scattered Clouds 1300 ft
Overcast 4800 ft
Windchill 43 °F
Dew Point 40 °F
Humidity 90%
Rainfall -999.00 in
Snow Depth Not available.
UV 0 out of 12
Pollen 6.10 out of 12
Air Quality Not available.
Flu Activity Not available.
METAR KBNA 262353Z 35004KT 10SM SCT013 OVC048 07/06 A2997 RMK AO2 RAE07B36E48 SLP149 P0000 60009 T00720056 10122 20072 51025

More Conditions Fewer Conditions

Pressure 29.97 in
Visibility 10.0 miles
Clouds Scattered Clouds 1300 ft
Overcast 4800 ft
Windchill 43 °F
Dew Point 40 °F
Humidity 90%
Rainfall -999.00 in
Snow Depth Not available.
UV 0 out of 12
Pollen 6.10 out of 12
Air Quality Not available.
Flu Activity Not available.
METAR KBNA 262353Z 35004KT 10SM SCT013 OVC048 07/06 A2997 RMK AO2 RAE07B36E48 SLP149 P0000 60009 T00720056 10122 20072 51025

More Conditions Fewer Conditions

10-Day Weather Forecast

Almanac

Astronomy

Mar. 26, 2015 Rise Set
Actual Time
Civil Twilight
Nautical Twilight
Astronomical Twilight
Moon
Length of Visible Light
Length of Day
Tomorrow will be .
, % of the Moon is Illuminated

Today's Extremes

State Highs State Lows

Community

WunderPhotos

Upload Photos

1,808,643 photos uploaded!

WunderBlogs® & News

Nearby

Air Quality

  Air Quality AQ Index Pollutant
Not available.

Snow Depth

Station Depth Elevation

Earthquake Activity

City Distance Mag. Time & Date
Minimum magnitude displayed is 2.5.

Coastal Water Temperatures

Place Temperature

Stations

Nearby Weather Stations

Station Location Temp. Windchill Dew Point Humidity Wind Precip. Elev Updated Type
                   
Freeze Watch
Statement as of 12:41 PM CDT on March 26, 2015

... Freeze watch in effect from late Friday night through Saturday
morning...

The National Weather Service in Nashville has issued a freeze
watch... which is in effect from late Friday night through
Saturday morning.

* Temperature... 22 degrees to 30 degrees.

* Impacts... sensitive vegetation may be killed or damaged.

Precautionary/preparedness actions...

A freeze watch means sub-freezing temperatures are possible.
These conditions could kill crops and other sensitive vegetation.


Boyd
01